Torna al catalogo

STARLINK-36425

AttivoComunicazioniVLEO
NORAD 67467·PAYLOAD·🇺🇸 United States

Lanciato Jan 14, 2026 da Cape Canaveral Space Force Station

Loading…

Prossimi Passaggi (prossime 24 ore)

TLE

AggiornatoSource: CelesTrak SupGP

Epoca: Sep 15, 2026, 03:04 UTC

1 67467C 26008Y   26258.12826389 -.00041810  00000+0 -15146-2 0  2580
2 67467  43.0028 215.6492 0001363 272.2941   5.6024 15.27593866    18

Traccia STARLINK-36425 in tempo reale con AllMySat

Download on the App Store